Le Mars, IA

7:52 AM CDT on July 21, 2017 (GMT -0500)
Le Mars Municipal

Weather History for KLRJ - January, 2014

Change the Weather History Date:

Monday, January 20, 2014

  Actual Average Record
Temperature  
Mean Temperature 18 °F -  
Max Temperature 41 °F 29 °F 52 °F (1992)
Min Temperature -4 °F 8 °F -23 °F (1970)
Degree Days  
Heating Degree Days 46    
Moisture  
Dew Point 18 °F    
Average Humidity 79    
Maximum Humidity 93    
Minimum Humidity 60    
Precipitation  
Precipitation 0.00 in - - ()
Sea Level Pressure  
Sea Level Pressure 30.08 in    
Wind  
Wind Speed 9 mph (NW)    
Max Wind Speed 29 mph    
Max Gust Speed 37 mph    
Visibility 8 miles    
Events Rain , Snow    
Averages and records for this station are not official NWS values.
T = Trace of Precipitation, MM = Missing Value Source: NWS Daily Summary

Daily Weather History Graph

Daily Weather History Graph

Search for Another Location

Airport or City:

Trip Planner

Search our weather history database for the weather conditions in past years. The results will help you decide how hot, cold, wet, or windy it might be!

Date:

Astronomy

Jan. 20, 2014 Rise Set
Actual Time 7:49 AM CST 5:22 PM CST
Civil Twilight 7:18 AM CST 5:53 PM CST
Nautical Twilight 6:44 AM CST 6:27 PM CST
Astronomical Twilight 6:10 AM CST 7:01 PM CST
Moon 10:05 PM CST (1/20) 9:43 AM CST (1/20)
Length of Visible Light 10h 34m
Length of Day
9h 32m
Waning Gibbous, 82% of the Moon is Illuminated
Jan 20
Waning Gibbous
Jan 23
Last Quarter
Jan 30
New
Feb 6
First Quarter
Feb 14
Full

Hourly Weather History & Observations

Time (CST) Temp. Windchill Dew Point Humidity Pressure Visibility Wind Dir Wind Speed Gust Speed Precip Events Conditions
12:15 AM 26.6 °F - 23.0 °F 86% 29.82 in 10.0 mi Calm Calm - N/A   Clear
12:35 AM 28.4 °F - 24.8 °F 86% 29.82 in 10.0 mi Calm Calm - N/A   Clear
12:55 AM 26.6 °F 21.2 °F 24.8 °F 93% 29.83 in 10.0 mi SW 4.6 mph - N/A   Clear
1:15 AM 26.6 °F - 24.8 °F 93% 29.83 in 10.0 mi Calm Calm - N/A   Scattered Clouds
1:35 AM 28.4 °F 23.3 °F 23.0 °F 80% 29.84 in 10.0 mi West 4.6 mph - N/A   Overcast
1:55 AM 30.2 °F 25.4 °F 24.8 °F 80% 29.84 in 10.0 mi West 4.6 mph - N/A   Overcast
2:15 AM 32.0 °F - 26.6 °F 80% 29.85 in 10.0 mi Calm Calm - N/A   Mostly Cloudy
2:35 AM 32.0 °F - 26.6 °F 80% 29.86 in 10.0 mi Calm Calm - N/A   Scattered Clouds
2:55 AM 32.0 °F - 26.6 °F 80% 29.87 in 10.0 mi Calm Calm - N/A   Scattered Clouds
3:15 AM 32.0 °F 27.5 °F 26.6 °F 80% 29.87 in 10.0 mi WNW 4.6 mph - N/A   Mostly Cloudy
3:35 AM 32.0 °F - 26.6 °F 80% 29.88 in 10.0 mi Calm Calm - N/A   Scattered Clouds
3:55 AM 33.8 °F 28.6 °F 28.4 °F 81% 29.88 in 10.0 mi WNW 5.8 mph - N/A   Partly Cloudy
4:15 AM 32.0 °F 26.4 °F 28.4 °F 87% 29.88 in 10.0 mi West 5.8 mph - N/A   Partly Cloudy
4:35 AM 32.0 °F 26.4 °F 26.6 °F 80% 29.88 in 10.0 mi WNW 5.8 mph - N/A   Clear
4:55 AM 32.0 °F 25.6 °F 28.4 °F 87% 29.89 in 10.0 mi West 6.9 mph - N/A   Clear
5:15 AM 32.0 °F 25.6 °F 28.4 °F 87% 29.89 in 10.0 mi West 6.9 mph - N/A   Clear
5:35 AM 32.0 °F 26.4 °F 28.4 °F 87% 29.90 in 10.0 mi WSW 5.8 mph - N/A   Clear
5:55 AM 32.0 °F 27.5 °F 28.4 °F 87% 29.90 in 10.0 mi West 4.6 mph - N/A   Clear
6:15 AM 30.2 °F 25.4 °F 26.6 °F 86% 29.90 in 10.0 mi West 4.6 mph - N/A   Clear
6:35 AM 30.2 °F 22.6 °F 26.6 °F 86% 29.91 in 10.0 mi West 8.1 mph - N/A   Clear
6:55 AM 30.2 °F 23.4 °F 26.6 °F 86% 29.92 in 10.0 mi WNW 6.9 mph - N/A   Clear
7:15 AM 28.4 °F 23.3 °F 26.6 °F 93% 29.93 in 10.0 mi WSW 4.6 mph - N/A   Clear
7:35 AM 30.2 °F 25.4 °F 26.6 °F 86% 29.94 in 10.0 mi WSW 4.6 mph - N/A   Clear
7:55 AM 30.2 °F 26.7 °F 26.6 °F 86% 29.93 in 10.0 mi Variable 3.5 mph - N/A   Clear
8:15 AM 30.2 °F 26.7 °F 26.6 °F 86% 29.93 in 10.0 mi Variable 3.5 mph - N/A   Clear
8:35 AM 28.4 °F 22.2 °F 24.8 °F 86% 29.94 in 10.0 mi South 5.8 mph - N/A   Clear
8:55 AM 28.4 °F 24.6 °F 26.6 °F 93% 29.95 in 10.0 mi SW 3.5 mph - N/A   Clear
9:15 AM 32.0 °F 27.5 °F 28.4 °F 87% 29.95 in 10.0 mi SW 4.6 mph - N/A   Clear
9:35 AM 35.6 °F 28.6 °F 28.4 °F 75% 29.96 in 10.0 mi West 9.2 mph 15.0 mph N/A   Clear
9:55 AM 37.4 °F 29.8 °F 28.4 °F 70% 29.96 in 10.0 mi WNW 11.5 mph 19.6 mph N/A   Clear
10:15 AM 37.4 °F 28.2 °F 28.4 °F 70% 29.97 in 10.0 mi WNW 16.1 mph - N/A   Clear
10:35 AM 39.2 °F 29.6 °F 28.4 °F 65% 29.97 in 10.0 mi WNW 19.6 mph 26.5 mph N/A   Clear
10:55 AM 41.0 °F 31.9 °F 28.4 °F 61% 29.98 in 10.0 mi NW 19.6 mph 28.8 mph N/A   Clear
11:15 AM 39.2 °F 29.3 °F 26.6 °F 61% 29.98 in 10.0 mi NW 20.7 mph 29.9 mph N/A   Mostly Cloudy
11:35 AM 39.2 °F 28.5 °F 26.6 °F 61% 29.98 in 10.0 mi NW 24.2 mph 33.4 mph N/A   Overcast
11:55 AM 39.2 °F 29.6 °F 28.4 °F 65% 29.98 in 10.0 mi NW 19.6 mph 31.1 mph N/A   Overcast
12:15 PM 39.2 °F 30.5 °F 28.4 °F 65% 29.97 in 10.0 mi NW 16.1 mph 28.8 mph N/A   Overcast
12:35 PM 39.2 °F 29.6 °F 26.6 °F 61% 29.97 in 10.0 mi NW 19.6 mph 29.9 mph N/A   Overcast
12:55 PM 39.2 °F 29.8 °F 28.4 °F 65% 29.97 in 10.0 mi WNW 18.4 mph 31.1 mph N/A   Overcast
1:15 PM 37.4 °F 26.6 °F 32.0 °F 81% 29.97 in 9.0 mi WNW 21.9 mph 28.8 mph N/A   Mostly Cloudy
1:35 PM 35.6 °F 25.2 °F 32.0 °F 87% 29.97 in 9.0 mi WNW 18.4 mph 25.3 mph N/A   Scattered Clouds
1:55 PM 35.6 °F 25.9 °F 32.0 °F 87% 29.97 in 4.0 mi NW 16.1 mph 25.3 mph N/A Snow Light Snow
2:15 PM 33.8 °F 23.9 °F 32.0 °F 93% 29.97 in 2.5 mi NW 15.0 mph - N/A Snow Light Snow
2:35 PM 33.8 °F 21.3 °F 32.0 °F 93% 29.97 in 4.0 mi NW 24.2 mph 33.4 mph N/A Snow Light Snow
2:55 PM 32.0 °F 18.4 °F 30.2 °F 93% 29.98 in 1.2 mi NW 26.5 mph 36.8 mph N/A Snow Light Snow
3:15 PM 26.6 °F 11.1 °F 24.8 °F 93% 30.04 in 0.2 mi North 26.5 mph 35.7 mph N/A   Overcast
3:35 PM 24.8 °F 10.3 °F 21.2 °F 86% 30.09 in 1.0 mi North 20.7 mph 33.4 mph N/A   Mostly Cloudy
3:55 PM 23.0 °F 6.6 °F 19.4 °F 86% 30.13 in 1.2 mi NNW 25.3 mph 33.4 mph N/A   Mostly Cloudy
4:15 PM 19.4 °F 2.5 °F 17.6 °F 93% 30.16 in 1.0 mi North 23.0 mph 33.4 mph N/A Snow Light Snow
4:35 PM 17.6 °F -1.3 °F 14.0 °F 86% 30.19 in 1.2 mi NNW 27.6 mph 36.8 mph N/A Snow Light Snow
4:55 PM 15.8 °F -4.1 °F 12.2 °F 86% 30.22 in 1.0 mi NNW 28.8 mph 36.8 mph N/A Snow Light Snow
5:15 PM 14.0 °F -4.3 °F 10.4 °F 86% 30.25 in 3.0 mi NNW 21.9 mph 34.5 mph N/A Snow Light Snow
5:35 PM 14.0 °F -6.2 °F 8.6 °F 79% 30.27 in 4.0 mi NNW 27.6 mph - N/A Snow Light Snow
5:55 PM 12.2 °F -7.9 °F 6.8 °F 79% 30.29 in 5.0 mi North 25.3 mph 36.8 mph N/A Snow Light Snow
6:15 PM 10.4 °F -9.9 °F 5.0 °F 79% 30.31 in 2.5 mi North 24.2 mph 32.2 mph N/A Snow Light Snow
6:35 PM 10.4 °F -8.2 °F 5.0 °F 79% 30.33 in 2.5 mi North 19.6 mph 32.2 mph N/A Snow Light Snow
6:55 PM 6.8 °F -13.4 °F 3.2 °F 85% 30.35 in 1.5 mi North 20.7 mph 32.2 mph N/A Snow Light Snow
7:15 PM 6.8 °F -15.1 °F 1.4 °F 79% 30.37 in 2.5 mi North 25.3 mph 36.8 mph N/A Rain Light Freezing Rain
7:35 PM 5.0 °F -16.2 °F -2.2 °F 72% 30.40 in 10.0 mi North 21.9 mph 29.9 mph N/A   Overcast
7:55 PM 5.0 °F -14.2 °F -0.4 °F 78% 30.42 in 6.0 mi North 17.3 mph 26.5 mph N/A   Haze
8:15 PM 5.0 °F -13.6 °F -2.2 °F 72% 30.43 in 8.0 mi North 16.1 mph 23.0 mph N/A   Overcast
8:35 PM 3.2 °F -19.0 °F -4.0 °F 72% 30.43 in 10.0 mi NNW 23.0 mph - N/A   Overcast
8:55 PM 1.4 °F -19.9 °F -7.6 °F 66% 30.45 in - North 19.6 mph 28.8 mph N/A   Scattered Clouds
9:15 PM 1.4 °F -19.4 °F -7.6 °F 66% 30.46 in 10.0 mi North 18.4 mph 27.6 mph N/A   Clear
9:35 PM -0.4 °F -22.8 °F -9.4 °F 66% 30.46 in 10.0 mi North 20.7 mph - N/A   Clear
9:55 PM -0.4 °F -21.2 °F -9.4 °F 66% 30.46 in 10.0 mi North 17.3 mph 25.3 mph N/A   Clear
10:15 PM -2.2 °F -22.9 °F -9.4 °F 71% 30.47 in 10.0 mi North 16.1 mph - N/A   Clear
10:35 PM -2.2 °F -24.7 °F -11.2 °F 66% 30.48 in 10.0 mi North 19.6 mph - N/A   Clear
10:55 PM -2.2 °F -21.5 °F -11.2 °F 66% 30.49 in 10.0 mi North 13.8 mph 23.0 mph N/A   Clear
11:15 PM -2.2 °F -18.9 °F -13.0 °F 60% 30.51 in 10.0 mi North 10.4 mph 20.7 mph N/A   Clear
11:35 PM -4.0 °F -23.0 °F -13.0 °F 65% 30.51 in 10.0 mi North 12.7 mph 18.4 mph N/A   Clear
11:55 PM -4.0 °F -23.0 °F -13.0 °F 65% 30.51 in 10.0 mi North 12.7 mph 18.4 mph N/A   Clear